Regional Weather Roundup
Issued by NWS

Home | Current Version | Previous Version | Graphics & Text | Print | Product List | Glossary On
Versions: 1 2 3 4 5 6 7 8 9 10 11 12 13 14 15 16 17 18 19 20 21 22 23 24 25 26 27 28 29 30 31 32 33 34 35 36 37 38 39 40 41 42 43 44 45 46 47 48 49 50
000
ASUS43 KDMX 231608
RWRIA

WEATHER ROUNDUP FOR IOWA
NATIONAL WEATHER SERVICE DES MOINES IA
1100 AM CDT TUE AUG 23 2016

NOTE: "FAIR" INDICATES FEW OR NO CLOUDS BELOW 12,000 FEET WITH NO
SIGNIFICANT WEATHER AND/OR OBSTRUCTIONS TO VISIBILITY.

* - THESE STATIONS ARE NOT NWS STATIONS...THUS NOT UNDER NWS
QUALITY CONTROL.  THEY ALSO DO NOT REPORT WEATHER SUCH
AS PRECIPITATION OR FOG.

IAZ001>003-012>014-020>022-031>034-043>046-231700-
   NORTHWEST IOWA

CITY           SKY/WX    TMP DP  RH WIND       PRES   REMARKS
CARROLL *      MOSUNNY   77  70  78 SE14      29.97S
CHEROKEE *     CLOUDY    75  70  82 S12       29.93F
DENISON *      MOSUNNY   75  70  83 S15G24    29.94S
LE MARS *      CLOUDY    73  68  83 S14       29.92R
ORANGE CITY *  CLOUDY    73  70  88 S10G16    29.92R
SHELDON *      CLOUDY    73  70  88 S15G21    29.90S
SIOUX CITY     PTSUNNY   72  66  81 SE13      29.90S
SPENCER        CLOUDY    74  66  76 SE14      29.94S
STORM LAKE *   PTSUNNY   75  70  83 S15G22    29.95F
$$

IAZ055>058-069>071-079>083-090>094-231700-
   SOUTHWEST IOWA

CITY           SKY/WX    TMP DP  RH WIND       PRES   REMARKS
ATLANTIC *     CLOUDY    70  68  94 S14G21    30.00R
CLARINDA *       N/A     72  70  94 MISG      30.02S
COUNCIL BLFS * CLOUDY    70  68  94 S16       29.96S FOG
CRESTON *      CLOUDY    70  68  94 S14       30.05S
HARLAN  *      CLOUDY    72  68  88 S15G23    30.00S FOG
LAMONI         CLOUDY    71  68  90 S12G18    30.06S
RED OAK *      CLOUDY    72  68  88 SE14      29.99S
SHENANDOAH *   CLOUDY    73 -35   1 SE12G18   29.98F
$$

IAZ047>049-059>061-072>074-084-231700-
   CENTRAL IOWA

CITY           SKY/WX    TMP DP  RH WIND       PRES   REMARKS
AMES           SUNNY     77  69  76 S14       30.03S
ANKENY *         N/A    N/A N/A N/A MISG        N/A
BOONE *        SUNNY     77  68  73 S18G25    30.01F
CHARITON *       N/A     77  70  78 MISG      30.05F
DES MOINES     MOSUNNY   79  68  69 S15       30.03S HX  81
GRINNELL*      SUNNY     75  66  73 S13       30.09S
KNOXVILLE *    MOSUNNY   77  68  73 SE12      30.05S
NEWTON *       SUNNY     77  68  73 S10G17    30.06S
PERRY *          N/A     77  72  83 S14G20    30.01S
$$

IAZ004>006-015-016-023>025-035-036-231700-
   NORTH CENTRAL IOWA

CITY           SKY/WX    TMP DP  RH WIND       PRES   REMARKS
ALGONA *       CLOUDY    75  68  78 S17       29.98S
ESTHERVILLE    CLOUDY    73  68  84 S16G24    29.95S
FORT DODGE *   MOSUNNY   75  66  73 S12G17    30.00F
MASON CITY     MOSUNNY   75  66  73 S15       30.03S
FOREST CITY *    N/A     73  66  78 S14G20    30.00F
WEBSTER CITY * MOSUNNY   75  70  83 SE15      29.99F
IOWA FALLS *     N/A     76  67  73 S12       30.05S
$$

IAZ007>011-017>019-026>030-037>042-050>054-066-231700-
   NORTHEAST IOWA

CITY           SKY/WX    TMP DP  RH WIND       PRES   REMARKS
CEDAR RAPIDS   SUNNY     74  68  81 S12       30.11S
CHARLES CITY * SUNNY     73  68  83 S14       30.06S
CLINTON *      SUNNY     76  65  68 S10       30.17S
DECORAH *      SUNNY     75  64  69 S8G17     30.07F
DUBUQUE        SUNNY     74  65  73 S12       30.15S
MONTICELLO *   SUNNY     75  66  73 S9G16     30.12F
OELWEIN *      SUNNY     75  66  73 S14       30.09F
WATERLOO       SUNNY     76  65  68 S14       30.05F
$$

IAZ064-065-067-068-078-231700-
   EAST CENTRAL IOWA

CITY           SKY/WX    TMP DP  RH WIND       PRES   REMARKS
DAVENPORT      SUNNY     76  62  62 S15       30.16S
IOWA CITY      MOSUNNY   76  66  71 S13       30.13F
MT. PLEASANT * MOSUNNY   81  67  61 S13       30.13F HX  83
MUSCATINE *    SUNNY     79  64  61 S16G22    30.14S HX  81
QUAD CITIES    SUNNY     77  64  64 S12       30.15F
$$

IAZ062-063-075>077-085>089-095>099-231700-
   SOUTHEAST IOWA

CITY           SKY/WX    TMP DP  RH WIND       PRES   REMARKS
BURLINGTON     SUNNY     78  66  66 S16       30.15S HX  80
FAIRFIELD *    SUNNY     77  66  69 S13       30.11F
FORT MADISON * MOSUNNY   75  64  69 S9G16     30.15S
KEOKUK *       PTSUNNY   77  64  65 S9        30.13F
OSKALOOSA *      N/A     76  68  76 S12       30.09F
CENTERVILLE *    N/A     77  68  73 SE9       30.09F
OTTUMWA        SUNNY     76  67  73 SE12      30.09F
WASHINGTON *   SUNNY     75  68  78 S12       30.13F
$$

ABBREVIATIONS USED IN REMARKS
   TC - TEMPERATURES IN CELSIUS
  WCI - WIND CHILL INDEX
   HX - HEAT INDEX
  VSB - VISIBILITY
$$





USA.gov is the U.S. government's official web portal to all federal, state and local government web resources and services.